Regional Weather Roundup
Issued by NWS Nashville, TN

Home | Current Version | Previous Version | Text Only | Print | Product List | Glossary On
Versions: 1 2 3 4 5 6 7 8 9 10 11 12 13 14 15 16 17 18 19 20 21 22 23 24 25 26 27 28 29 30 31 32 33 34 35 36 37 38 39 40 41 42 43 44 45 46 47 48 49 50
000
ASUS44 KOHX 301215
RWROHX
MIDDLE TENNESSEE HOURLY WEATHER ROUNDUP
NATIONAL WEATHER SERVICE NASHVILLE TN
700 AM CDT WED JUL 30 2014

NOTE: "FAIR" INDICATES FEW OR NO CLOUDS BELOW 12,000 FEET WITH
NO SIGNIFICANT WEATHER AND/OR OBSTRUCTIONS TO VISIBILITY.

* THESE REPORTS ARE NOT UNDER NWS QUALITY CONTROL AND MAY NOT
  REPORT WEATHER SUCH AS PRECIPITATION AND FOG.


TNZ005>011-023>034-057-059-062>066-078-080-301300
...NORTHERN MIDDLE TENNESSEE...

CITY           SKY/WX    TMP DP  RH WIND       PRES   REMARKS
CLARKSVILLE    MOSUNNY   58  55  90 CALM      30.12R
CROSSVILLE     SUNNY     54  51  90 CALM      30.15R
DICKSON        MOSUNNY   55  52  88 CALM      30.11S
LEBANON        SUNNY     58  54  86 CALM      30.10S
LIVINGSTON       N/A     57  52  84 CALM      30.13R
NASHVILLE      PTSUNNY   59  56  89 S3        30.11S
WEST NASHVILLE   N/A     57  57 100 CALM      30.11S
PORTLAND       SUNNY     55  54  94 CALM      30.11S
SMYRNA         SUNNY     57  57 100 CALM      30.12S
SPARTA         SUNNY     55  54  94 CALM      30.12R
$$
TNZ056-058-060-061-075>077-079-093>097-301300
...SOUTHERN MIDDLE TENNESSEE...

CITY           SKY/WX    TMP DP  RH WIND       PRES   REMARKS
COLUMBIA       CLOUDY    55  55 100 CALM      30.10S VSB 0
FAYETTEVILLE   SUNNY     57  54  88 NE14G26   30.10S
LEWISBURG      SUNNY     56  52  86 CALM      30.11R
MCMINNVILLE    SUNNY     55  55 100 CALM      30.12S
MURFREESBORO   SUNNY     58  55  89 CALM      30.11R
SHELBYVILLE    SUNNY     55  55 100 CALM      30.13R
TULLAHOMA      MOSUNNY   55  52  88 CALM      30.12S
WINCHESTER     SUNNY     55  54  94 CALM      30.12R
$$


...KEY TO REMARKS...
VSB - VISIBILITY IN MILES
WCI - WIND CHILL INDEX
HX  - HEAT INDEX




USA.gov is the U.S. government's official web portal to all federal, state and local government web resources and services.